Temp
25 25 24 23 22 18 21 23 24 26 26 24 24 24 23 21 24 23 19 18 20 19 18 18 19 20 20 20 20 20 20 20 20 19 19 19 19 19 19 19 19 19 19 18 19 19 19 19 19
25 24 23 19 20 20 21 22 25 24 23 24 24 23 23 22 21 19 19 18 18 18 19 18 19 19 19 19 19 19 19 19 19 19 19 18 18 18 18 18 18 19 19 19 18 19 19 19 19
25 24 21 19 17 19 21 25 27 24 24 25 22 22 22 21 21 19 18 18 18 17 17 18 18 19 19 20 19 19 19 19 19 19 19 19 19 18 18 18 18 18 18 18 18 18 19 19 19
25 20 18 20 22 22 24 24 25 26 25 22 21 20 20 21 20 19 18 18 17 17 17 18 19 19 19 19 19 18 18 18 19 19 19 19 18 18 18 18 18 18 18 18 18 18 18 18 19
23 17 19 21 22 23 23 24 25 25 25 23 21 20 21 20 20 19 18 18 18 17 18 18 18 19 19 18 18 18 18 18 18 19 18 18 18 18 18 18 17 18 18 18 18 18 18 18 18
19 17 20 21 23 23 24 24 25 26 24 21 20 21 21 18 18 18 19 18 18 18 17 18 18 18 18 18 18 18 18 18 18 18 18 18 18 18 18 17 18 18 18 18 18 18 18 18 17
21 18 20 22 23 23 26 24 27 25 23 22 20 19 20 19 17 18 17 17 17 17 18 18 18 18 19 19 18 18 18 18 18 18 18 18 18 18 18 18 18 18 18 18 18 18 18 18 17
18 18 22 22 22 23 25 25 26 24 23 21 21 19 20 20 18 18 17 18 18 17 18 18 18 18 18 17 17 17 17 17 18 18 17 17 17 17 17 17 17 17 17 18 18 18 18 17 18
19 20 20 22 23 25 25 25 25 21 21 20 19 20 20 18 17 16 16 16 16 16 17 17 17 17 17 16 16 16 16 16 17 16 16 17 16 16 16 16 16 16 16 16 16 17 17 17 17
21 19 22 22 23 24 25 24 26 25 22 22 19 19 18 17 16 15 15 14 15 15 16 16 16 16 16 16 16 16 16 16 16 16 16 16 16 15 15 15 15 15 15 15 15 16 16 17 17
21 21 22 23 23 23 24 24 25 22 22 22 20 17 17 17 16 16 15 15 15 16 16 16 16 16 16 16 16 15 15 15 15 15 15 15 15 14 14 15 14 14 14 14 14 15 14 15 15
22 21 22 23 24 22 24 24 24 25 25 25 19 18 17 17 17 16 15 15 15 15 16 15 16 16 16 16 15 15 14 14 14 14 14 14 14 13 13 13 13 13 12 12 12 13 13 13 14
21 22 22 22 20 21 22 22 23 23 23 20 18 18 18 17 17 17 16 16 16 15 15 15 15 16 16 15 15 14 14 14 13 13 13 13 13 12 12 12 12 11 11 11 12 12 12 12 13
22 21 20 20 21 21 22 22 23 23 18 18 18 18 18 17 17 16 16 15 15 15 15 15 15 15 15 15 14 14 13 13 13 12 12 12 12 11 11 11 11 11 10 10 11 11 11 12 12
21 20 19 21 21 22 22 21 21 22 19 18 18 18 17 17 17 16 16 14 15 15 15 15 15 14 14 14 14 13 13 13 12 12 12 12 11 11 11 11 10 9 10 9 10 10 10 10 11
20 20 18 22 22 22 22 20 22 22 18 17 18 17 17 17 17 17 16 15 15 15 14 14 15 14 14 14 13 13 12 12 12 11 11 11 10 10 10 9 9 9 9 9 8 8 8 8 9
17 16 18 20 21 21 21 20 21 21 19 19 18 17 17 17 15 17 16 15 15 15 14 14 14 14 14 13 13 13 12 12 11 11 10 10 10 9 9 8 8 8 8 7 7 7 6 5 7
16 16 17 18 20 19 19 18 19 20 19 19 18 17 17 17 16 16 14 14 15 14 14 14 14 14 13 13 13 12 11 11 11 10 10 10 9 9 8 8 7 7 7 6 6 6 5 4 4
18 17 16 18 19 18 19 19 20 21 20 18 17 17 17 17 14 15 13 13 14 13 14 14 13 13 13 13 12 11 11 10 10 10 9 9 8 8 8 7 7 6 6 5 4 4 4 3 4
18 17 17 17 19 19 18 19 18 19 20 18 17 17 17 13 14 12 12 12 12 12 13 13 13 13 13 13 13 12 10 10 9 9 8 8 8 7 7 6 6 6 5 4 3 3 3 3 4
17 17 17 17 19 19 19 20 19 20 20 21 17 18 18 16 14 12 11 11 11 11 12 12 13 13 13 13 12 11 10 9 8 8 7 7 7 6 6 5 5 4 3 3 2 3 3 3 3
17 18 18 18 18 17 19 19 20 20 20 21 20 16 17 16 15 13 12 10 10 10 11 12 12 12 12 12 11 11 9 8 7 7 6 6 5 5 4 4 3 3 2 2 2 2 2 2 3
18 19 17 17 16 17 18 16 20 20 20 19 20 19 16 15 14 13 12 10 9 10 10 11 11 11 11 12 11 10 8 7 6 6 5 5 4 4 3 3 2 2 1 1 1 1 1 2 2
18 18 17 17 15 15 18 17 19 19 20 20 21 21 18 14 14 12 10 9 8 9 9 10 10 9 10 10 10 9 8 7 6 5 5 4 3 3 2 2 2 1 1 0 0 1 1 1 1
16 15 13 13 14 16 18 17 20 20 20 19 18 17 13 16 12 9 8 8 7 7 8 8 9 8 8 9 8 8 7 7 6 5 4 3 3 2 2 1 1 0 0 0 0 0 -0 -0 -1
15 15 14 14 15 16 18 17 18 18 14 13 12 11 11 11 10 9 8 8 8 7 8 8 8 7 7 7 7 6 6 5 4 4 3 2 2 1 1 1 0 0 -0 -0 -0 -1 -1 -2 -2
15 14 17 15 15 14 15 15 18 15 13 13 12 9 8 8 9 9 9 8 8 7 7 7 7 6 6 6 5 5 5 4 3 2 2 2 1 1 1 0 -0 -0 -1 -1 -1 -2 -2 -2 -3
16 16 13 11 13 14 14 15 13 11 12 12 9 8 8 8 8 9 9 8 8 7 7 7 7 6 6 5 5 4 4 3 2 2 1 1 1 0 -0 -1 -1 -1 -2 -2 -2 -3 -4 -4 -5
14 13 11 11 10 13 15 13 12 11 11 11 10 9 8 8 9 9 7 8 7 6 6 6 6 6 5 4 4 3 2 2 2 1 1 0 -0 -0 -1 -1 -2 -2 -3 -4 -4 -4 -5 -5 -6
12 12 11 11 11 11 11 12 10 10 9 9 11 10 10 10 9 8 8 7 6 6 6 5 5 5 4 3 3 2 2 1 1 1 0 0 -1 -1 -2 -2 -2 -3 -5 -5 -5 -6 -6 -6 -7
Height
760 759 758 760 786 799 800 784 763 757 749 744 742 749 760 764 767 782 767 770 769 771 774 775 775 777 778 780 782 782 783 784 785 787 788 790 791 793 791 792 792 792 792 791 791 792 791 791 790
759 758 759 770 799 813 801 773 764 752 746 744 746 750 757 767 761 766 769 772 772 774 776 776 775 776 778 780 782 783 783 784 785 787 788 790 791 792 792 793 792 792 792 791 792 791 791 791 790
757 757 766 783 805 810 797 763 754 754 743 743 754 755 760 765 763 766 769 773 774 775 776 778 777 777 779 780 781 783 784 785 786 788 788 789 791 791 792 792 792 792 792 792 792 791 791 790 790
757 759 771 789 792 783 772 757 753 753 749 747 753 765 762 761 762 765 770 773 776 778 779 778 778 779 779 781 782 784 785 787 787 787 788 788 790 791 790 792 792 791 791 791 791 791 791 791 789
758 770 791 792 787 774 760 748 748 749 749 754 755 770 765 763 762 765 770 772 772 775 777 777 778 779 780 781 783 784 786 786 787 787 788 789 789 790 791 791 791 791 791 790 790 790 790 790 789
771 777 797 799 783 767 755 744 740 739 749 757 762 765 764 763 763 765 767 770 774 775 777 778 780 781 782 783 783 784 786 787 788 788 789 789 789 789 790 790 791 790 790 789 789 789 788 789 788
773 788 792 786 781 773 754 741 739 741 750 755 756 771 766 765 767 769 772 773 774 776 777 777 779 782 783 784 785 786 787 788 788 789 788 788 789 789 789 790 790 790 789 788 788 787 787 787 787
771 781 783 782 784 776 750 746 741 743 752 748 751 764 766 762 767 769 771 772 774 775 776 778 781 783 783 785 786 787 788 788 787 790 788 787 788 789 788 789 790 790 790 788 787 785 785 786 785
763 788 793 780 774 760 744 750 742 744 749 751 751 749 749 757 764 768 771 773 774 774 776 778 782 784 785 786 787 788 789 789 786 789 788 787 788 789 788 788 789 789 790 788 787 785 784 784 785
770 789 778 766 761 759 748 748 743 746 750 750 752 750 750 756 761 764 767 769 772 775 777 779 783 785 786 787 788 789 791 791 786 788 788 786 787 788 789 788 789 788 788 788 787 786 783 783 782
768 777 764 759 755 753 750 748 738 749 756 745 749 753 753 756 758 761 765 769 772 775 779 782 784 785 786 787 788 790 792 792 789 789 789 787 788 788 788 788 788 789 788 787 785 785 784 782 781
772 760 758 754 749 753 751 744 743 738 736 730 734 740 748 754 754 756 763 768 772 774 777 780 782 784 786 787 787 789 793 793 791 790 791 790 789 788 788 789 789 789 788 787 785 784 784 782 780
767 758 754 751 752 750 748 748 745 741 730 730 735 742 746 751 757 759 761 765 770 773 776 782 784 784 784 785 787 789 791 792 792 792 792 792 791 790 790 789 790 790 789 787 786 784 783 782 779
759 758 755 748 748 748 747 743 740 733 735 736 736 740 741 744 748 756 758 763 767 770 773 772 782 784 786 785 786 787 790 792 793 793 792 792 792 792 790 790 791 791 791 788 786 784 782 780 779
759 766 758 744 743 742 739 746 744 730 734 737 738 738 743 744 749 747 750 756 760 766 769 771 773 780 787 789 789 788 790 792 793 794 794 794 793 793 791 790 790 791 790 789 786 784 782 780 777
768 767 774 744 740 736 740 754 729 721 730 735 734 736 738 741 740 749 753 757 761 766 769 770 772 775 779 786 789 790 792 794 795 795 795 794 794 795 793 792 791 792 789 788 786 783 781 779 776
778 784 775 757 741 742 743 747 729 721 726 728 729 731 734 739 742 744 746 750 757 764 768 769 773 775 780 783 785 789 791 793 794 796 796 796 795 796 795 795 794 792 789 788 786 783 783 780 777
783 781 771 767 749 749 750 749 735 722 725 723 724 726 729 732 732 736 743 748 753 759 764 767 770 773 778 782 786 789 792 794 795 795 795 795 796 797 795 795 794 793 791 788 785 784 784 783 779
767 771 774 762 751 757 749 741 733 720 721 725 725 725 725 725 730 736 742 747 754 759 761 763 767 773 775 779 784 788 790 793 795 796 797 797 798 799 798 794 791 791 791 791 788 787 785 784 780
764 767 767 760 752 752 750 735 732 723 718 715 718 718 719 729 730 734 739 745 750 755 760 763 766 770 774 778 783 786 790 794 795 797 798 798 799 800 799 798 795 792 791 790 790 790 790 789 786
761 765 763 761 753 743 747 725 729 716 713 705 709 706 710 716 722 731 736 740 746 752 757 761 764 768 772 775 779 785 790 793 795 797 798 801 800 800 800 800 799 796 794 792 793 792 791 792 791
753 748 750 752 759 762 744 735 724 718 713 705 704 709 708 713 720 725 731 737 742 750 757 761 764 767 772 776 778 781 786 790 794 795 798 800 801 799 800 801 801 800 796 795 794 795 795 793 794
738 742 751 751 755 754 741 759 717 713 715 711 702 701 704 706 711 718 726 734 741 749 756 760 764 768 770 775 779 783 788 793 796 797 798 801 803 801 800 801 801 801 800 797 797 797 796 796 797
741 744 746 745 753 762 729 748 710 717 711 702 696 692 696 703 708 718 728 736 743 751 757 761 765 769 774 778 782 785 787 792 794 797 798 802 802 802 803 803 800 799 799 798 798 798 799 800 799
748 756 773 765 762 741 726 736 709 704 700 702 701 698 700 698 708 717 726 735 746 753 759 763 766 771 775 779 785 789 789 793 795 797 799 801 802 803 803 802 801 800 802 800 799 799 800 801 801
743 751 758 753 748 737 723 726 714 703 711 711 713 713 709 710 717 722 728 734 746 754 759 763 767 772 775 779 784 790 791 793 797 799 801 802 803 804 804 804 803 802 803 803 801 801 802 802 801
737 746 728 742 736 743 735 727 708 714 719 721 722 724 723 724 728 733 736 740 747 753 760 764 768 773 777 782 785 791 793 795 798 802 803 805 804 803 804 804 803 804 805 805 803 802 802 801 799
732 733 744 755 746 737 733 733 738 739 732 730 738 739 737 739 737 737 739 744 751 756 759 765 770 769 780 785 787 791 793 795 799 803 804 806 804 804 805 804 805 806 807 806 804 802 800 801 799
738 741 754 753 752 738 728 737 744 748 745 742 745 746 748 744 743 743 742 746 752 757 762 765 765 774 781 784 786 790 794 796 799 801 805 808 806 806 805 807 806 807 808 805 803 802 800 799 798
737 744 748 753 750 748 743 736 751 751 752 754 752 748 752 754 753 752 750 749 755 756 760 762 769 773 778 783 786 790 793 797 798 802 806 807 807 808 808 807 807 807 807 804 803 803 801 798 797
Wind_Speed
15 12 3 3 3 5 3 6 3 8 2 2 6 6 7 3 3 3 5 10 17 16 14 13 13 13 12 11 11 11 11 10 9 8 7 6 6 5 4 4 4 4 5 5 4 4 5 4 5
14 5 2 2 4 3 5 5 6 5 6 13 9 5 4 2 3 9 10 13 16 17 15 14 14 13 13 12 11 10 10 9 7 6 6 5 5 4 4 4 4 4 3 4 4 3 4 4 5
7 4 3 4 3 4 4 4 9 4 9 3 5 6 3 4 10 6 15 18 19 16 16 15 14 14 12 10 9 8 8 8 7 5 5 5 4 4 5 4 4 4 4 4 4 4 4 5 6
3 5 4 3 3 5 5 9 6 6 6 6 5 7 1 4 7 13 23 20 19 14 15 14 13 12 12 11 10 10 9 9 8 8 7 7 7 7 6 6 6 5 5 6 6 6 6 6 6
5 3 3 1 3 5 7 10 7 10 3 5 4 6 4 2 12 25 22 19 18 18 16 14 13 12 12 11 11 10 9 8 7 8 7 7 8 8 6 7 8 8 7 6 7 7 8 8 8
4 3 3 2 3 6 7 6 3 7 5 6 6 6 4 18 25 26 23 21 19 19 16 15 13 12 12 12 11 10 9 7 7 7 8 7 7 7 8 7 7 7 7 6 7 8 8 9 9
4 3 4 3 3 6 5 11 4 6 8 4 11 5 4 13 21 22 21 21 20 18 17 17 16 14 13 12 12 10 8 6 5 6 6 7 6 6 6 6 7 8 7 8 8 7 6 6 8
5 4 2 3 3 6 4 9 3 4 3 5 8 8 8 15 26 25 23 22 20 19 17 17 15 14 15 13 12 11 10 9 8 7 7 6 5 5 5 5 6 7 7 6 5 7 8 5 4
4 3 2 4 3 5 8 4 4 1 6 1 2 6 7 30 31 27 24 20 19 17 17 17 16 15 15 15 13 11 11 11 12 10 9 8 8 6 5 7 6 6 7 7 8 7 5 6 7
3 3 5 4 4 6 7 5 5 3 2 1 2 6 27 29 27 21 19 19 22 20 18 16 17 16 16 15 12 12 11 12 14 12 10 11 10 9 8 8 7 6 6 8 9 9 8 8 9
3 5 3 5 5 3 5 8 4 8 3 6 7 14 18 23 22 21 20 22 25 22 18 16 19 17 17 15 13 12 12 12 14 14 13 12 11 10 11 9 9 9 10 9 8 9 11 11 11
5 6 5 5 3 5 5 6 7 4 7 6 12 22 20 19 18 22 20 22 26 24 21 20 19 19 16 15 14 13 12 11 14 15 14 13 12 13 14 14 14 13 13 12 13 13 13 13 12
6 5 4 5 9 6 6 9 6 9 8 6 16 19 21 17 15 18 22 28 29 26 23 20 18 19 18 17 15 13 13 12 14 14 14 13 13 14 13 15 14 14 14 15 14 15 16 17 16
4 6 9 8 5 6 6 6 5 8 5 10 17 20 18 19 19 17 25 28 31 29 27 25 20 17 16 17 16 15 14 13 12 14 14 14 13 13 15 15 16 16 16 14 14 16 16 16 17
3 7 8 12 3 5 4 9 8 9 8 12 14 16 15 16 21 25 30 29 36 34 30 26 24 19 15 15 15 15 15 13 13 14 14 14 14 13 15 16 18 18 16 16 17 19 18 19 20
5 2 5 1 4 4 8 9 15 9 12 12 14 15 17 18 21 20 23 28 34 33 29 26 25 23 21 17 16 15 15 13 14 14 14 15 15 14 16 18 19 18 19 19 20 23 23 24 26
3 5 6 12 7 6 5 6 10 2 11 11 13 14 15 14 10 23 32 36 37 34 31 27 24 23 21 19 20 17 17 14 14 14 15 15 15 16 17 19 19 19 20 22 22 23 23 26 28
5 5 5 7 3 5 11 12 10 12 10 15 14 13 14 16 18 23 28 34 39 36 32 29 26 25 23 23 20 20 17 16 14 15 15 14 15 15 16 18 19 20 22 24 24 22 23 26 29
5 8 9 11 17 6 14 17 15 16 4 8 9 9 13 17 9 20 25 32 36 35 33 30 29 26 27 26 26 23 20 19 16 15 14 13 14 14 15 17 18 20 22 22 23 23 25 25 32
13 15 14 10 15 8 11 17 11 9 7 8 13 13 15 8 12 13 23 28 33 35 33 29 28 27 25 28 25 22 24 18 18 17 15 13 12 13 16 17 19 19 20 21 22 23 21 17 28
12 13 11 15 13 18 5 24 6 7 5 5 7 12 12 17 18 15 18 27 29 33 33 31 29 28 26 26 23 25 24 22 21 19 18 15 13 14 15 17 18 19 19 20 19 19 19 16 20
20 10 14 17 10 10 6 19 4 5 9 7 8 8 10 13 13 14 18 23 28 31 31 30 27 26 24 23 28 31 27 23 20 22 19 16 13 14 15 16 16 16 17 19 19 19 18 17 16
21 6 6 7 8 4 12 5 1 4 6 8 8 8 10 15 18 20 19 24 25 33 33 30 27 25 23 23 27 28 25 25 23 21 19 16 14 14 15 15 15 17 18 18 19 18 18 17 15
3 4 6 4 4 8 12 8 21 10 8 6 8 10 8 13 15 15 19 25 27 32 33 31 29 26 25 25 25 26 28 24 22 19 18 14 13 13 14 14 16 17 18 19 18 17 17 16 15
6 3 4 5 4 14 7 7 15 3 5 4 9 9 9 11 15 17 19 20 25 26 30 30 30 28 25 24 23 23 23 19 19 17 15 13 13 14 14 14 16 17 17 18 16 16 15 15 16
6 9 11 8 8 11 5 7 6 3 5 6 7 6 9 10 12 16 17 24 26 26 26 29 31 29 26 25 24 21 20 19 18 15 14 14 14 13 12 13 14 15 14 15 14 13 13 16 20
3 5 16 15 14 5 6 7 6 9 10 9 8 9 9 9 12 14 16 24 26 24 25 29 29 28 26 25 24 20 19 19 18 15 14 14 12 13 13 13 13 13 13 13 13 10 16 20 19
2 2 3 1 8 13 5 3 2 14 13 8 8 8 8 6 10 13 14 19 21 25 31 31 31 30 26 24 22 21 20 18 16 14 15 14 14 13 13 13 13 12 11 12 13 13 19 22 20
3 1 2 5 3 7 12 4 6 12 16 15 8 8 6 5 8 10 10 18 22 24 28 31 32 31 27 24 22 21 20 18 16 16 15 14 14 12 13 13 13 11 13 13 16 17 20 22 19
3 3 3 2 3 3 1 3 7 11 9 12 14 15 13 8 5 3 8 17 22 25 28 30 30 28 26 24 23 22 20 17 17 16 15 12 14 14 13 13 14 11 14 15 20 21 21 20 19
Wind_Direction
334 334 353 56 55 65 271 269 262 281 356 13 107 141 146 54 161 194 138 153 148 139 140 139 136 129 122 118 116 115 113 109 101 98 89 76 68 64 64 56 59 56 50 49 56 54 348 1 360
334 332 68 84 91 73 273 268 303 243 132 107 69 89 79 101 80 115 118 146 138 140 139 138 136 132 130 129 126 119 119 119 117 112 104 95 84 53 40 29 25 30 24 23 18 6 6 358 350
341 29 82 96 107 172 228 259 39 4 149 98 103 40 44 108 115 118 148 157 145 140 137 138 139 137 131 123 118 110 103 96 93 85 81 70 55 47 37 19 10 4 356 349 341 335 337 343 345
337 17 34 90 226 246 226 258 187 187 305 32 95 94 55 331 135 148 152 153 149 138 139 136 131 124 119 116 111 105 99 98 88 84 77 75 68 59 49 35 22 7 350 337 327 322 322 324 329
47 57 53 340 260 260 258 254 191 196 174 132 113 164 139 31 149 154 159 164 159 146 139 131 126 124 120 117 115 109 104 102 93 88 88 87 80 62 54 54 47 34 18 1 349 336 324 317 317
35 95 56 262 271 267 277 272 245 163 110 118 98 150 143 142 146 159 163 161 152 143 136 128 123 122 122 120 116 115 115 112 105 104 102 97 96 82 70 69 44 32 27 21 2 343 327 321 315
113 84 220 229 261 304 280 334 11 121 133 172 134 127 134 154 161 157 155 150 146 142 138 132 131 130 125 123 122 123 122 124 123 120 114 113 100 90 79 67 58 54 56 56 46 21 349 340 333
112 97 258 230 240 272 269 342 3 85 106 98 151 163 175 171 164 155 153 149 148 146 144 140 137 136 136 132 127 119 105 98 101 112 115 109 105 88 86 72 60 55 58 59 53 42 42 36 346
126 66 253 261 228 254 310 46 359 17 109 108 246 162 160 151 160 151 146 149 155 156 156 157 150 145 142 134 129 119 105 100 98 99 98 97 89 86 86 75 64 51 32 26 20 13 13 5 355
109 145 232 211 247 271 287 278 156 131 104 197 38 82 135 147 154 150 160 164 167 165 163 165 161 153 148 141 136 126 114 100 93 92 88 86 85 85 80 77 59 44 26 14 8 0 354 339 338
162 201 214 270 248 259 279 307 192 134 222 216 190 153 155 159 163 166 173 169 174 169 168 165 161 155 151 144 137 126 116 98 90 84 80 85 92 88 81 70 52 36 29 23 17 8 5 358 348
327 232 222 257 298 317 292 299 291 194 224 197 172 168 159 173 178 177 167 169 175 171 169 166 164 158 153 146 137 127 121 101 87 80 75 79 86 80 72 60 49 43 35 29 20 15 5 358 355
203 268 236 254 282 250 279 252 254 282 265 102 143 162 174 180 178 172 168 177 180 175 168 168 162 161 155 150 140 135 126 106 89 78 71 72 74 74 67 58 47 39 29 24 16 10 6 360 357
312 307 295 285 231 249 236 262 154 268 127 134 156 176 181 183 175 162 172 177 179 177 172 163 166 165 157 149 141 138 126 106 92 82 75 72 72 67 62 54 45 34 24 25 21 16 10 5 358
281 304 314 279 249 241 166 289 219 244 169 168 182 179 186 188 178 189 184 178 179 178 171 165 160 156 151 145 137 135 126 115 95 82 76 73 68 60 58 56 48 38 32 27 25 20 16 8 3
329 318 319 347 330 274 150 272 278 230 169 194 188 185 188 194 196 192 182 176 180 176 171 163 160 156 151 149 144 139 130 115 99 90 81 74 65 57 59 55 49 39 35 32 28 23 16 9 2
341 249 240 302 213 244 186 267 277 274 192 206 197 192 194 189 191 188 184 181 180 176 169 161 161 158 154 149 147 142 136 123 108 94 79 71 66 59 56 51 46 36 36 34 30 27 21 12 1
207 230 244 243 305 14 305 267 277 287 204 212 204 200 192 191 200 183 176 175 179 176 171 164 161 159 155 149 146 141 135 123 111 100 87 81 74 65 59 53 43 33 30 28 24 26 26 16 0
244 243 253 269 283 304 281 283 278 276 238 206 218 206 199 203 169 166 166 169 174 175 169 165 162 160 159 156 149 143 134 129 117 104 91 84 76 66 57 53 46 36 34 30 30 26 23 18 10
239 260 268 273 268 266 275 275 256 262 254 195 201 206 208 150 162 160 163 164 169 169 171 166 163 161 160 157 152 149 138 123 115 110 101 95 79 63 51 42 40 39 39 40 34 32 24 25 23
239 236 255 262 283 284 282 282 272 256 241 241 209 212 206 184 173 169 167 170 166 168 169 162 159 157 156 157 151 143 136 121 115 111 105 90 78 63 50 43 40 41 41 47 42 37 32 20 26
260 220 246 257 265 266 181 280 266 230 252 245 240 207 205 194 188 172 167 167 164 164 162 153 149 150 152 154 150 148 141 127 123 120 110 98 83 69 56 46 40 42 45 46 47 42 37 28 17
266 223 247 246 247 249 240 252 0 194 250 264 264 255 205 189 181 180 176 161 152 156 152 145 142 140 143 151 151 144 132 125 123 119 108 96 79 65 55 49 47 44 45 48 45 41 39 35 30
294 301 309 252 167 234 249 192 271 244 230 233 249 267 214 188 181 160 148 139 138 147 146 141 135 129 131 135 141 141 135 132 125 120 108 95 80 68 55 48 47 45 43 42 41 39 36 25 23
259 70 302 268 198 251 183 205 238 239 245 239 266 300 326 187 156 146 144 138 136 134 137 135 132 128 130 131 132 134 131 131 124 117 112 101 85 73 66 55 51 52 47 43 41 35 35 28 20
240 193 223 246 235 258 244 233 245 95 70 45 51 44 54 92 131 139 136 132 132 134 135 136 133 129 131 129 126 127 127 123 116 112 108 106 96 85 74 63 57 53 48 39 42 46 36 10 359
282 204 232 240 258 253 256 300 303 37 32 32 44 53 68 96 118 127 122 129 139 138 137 135 131 129 129 129 128 127 124 120 114 109 108 108 101 87 83 77 63 56 48 45 44 41 16 4 6
343 360 312 0 219 242 224 250 345 359 359 22 23 49 59 81 126 136 132 137 139 139 139 137 139 131 137 135 131 129 124 118 115 112 106 98 91 92 81 68 64 68 56 51 46 27 12 7 7
1 25 9 302 160 241 248 193 78 40 29 25 38 46 43 110 145 146 138 129 129 131 137 137 136 142 145 139 133 130 124 118 113 108 104 100 99 88 75 77 75 72 61 46 31 26 9 8 6
86 108 110 198 336 327 355 136 78 28 14 5 18 37 31 22 14 76 125 125 138 140 141 140 143 145 143 139 138 131 122 115 114 115 114 97 99 83 77 77 69 71 63 38 25 17 11 9 7